Regional Weather Roundup
Issued by NWS Little Rock, AR

Home | Current Version | Previous Version | Text Only | Print | Product List | Glossary On
Versions: 1 2 3 4 5 6 7 8 9 10 11 12 13 14 15 16 17 18 19 20 21 22 23 24 25 26 27 28 29 30 31 32 33 34 35 36 37 38 39 40 41 42 43 44 45 46 47 48 49 50
000
ASUS44 KLZK 291805
RWRLZK

WEATHER ROUNDUP FOR ARKANSAS
NATIONAL WEATHER SERVICE LITTLE ROCK AR
100 PM CDT WED JUL 29 2015

NOTE: "FAIR" INDICATES FEW OR NO CLOUDS BELOW 12,000 FEET WITH NO
SIGNIFICANT WEATHER AND/OR OBSTRUCTIONS TO VISIBILITY.

ARZ001-003-010-029-291900-
NORTHWEST ARKANSAS

CITY           SKY/WX    TMP DP  RH WIND       PRES   REMARKS
FAYETTEVILLE   FAIR      91  72  53 VRB3      30.11F HX  98
6HR MIN TEMP:  70; 6HR MAX TEMP:  91;

FORT SMITH     FAIR      96  61  31 SW5       30.05F HX  96
6HR MIN TEMP:  78; 6HR MAX TEMP:  96;

HARRISON       FAIR      90  71  53 NW7       30.11F HX  96
6HR MIN TEMP:  74; 6HR MAX TEMP:  90;

BENTONVILLE    FAIR      91  68  46 CALM      30.12F HX  95
6HR MIN TEMP:  73; 6HR MAX TEMP:  91;

ROGERS         FAIR      91  69  48 W3        30.12F HX  96
6HR MIN TEMP:  75; 6HR MAX TEMP:  91;

SILOAM SPGS    FAIR      91  70  49 SW5       30.09F HX  97
6HR MIN TEMP:  73; 6HR MAX TEMP:  91;

HIGHFILL       FAIR      91  73  55 S5        30.10F HX  99
6HR MIN TEMP:  73; 6HR MAX TEMP:  93;

SPRINGDALE     SUNNY     91  68  46 NW5       30.13F HX  95
$$

ARZ004-005-016-291900-
NORTH CENTRAL ARKANSAS

CITY           SKY/WX    TMP DP  RH WIND       PRES   REMARKS
BATESVILLE     FAIR      93  75  55 W5        30.04F HX 104
6HR MIN TEMP:  79; 6HR MAX TEMP:  93;

FLIPPIN        FAIR      93  72  49 NW6       30.06F HX 100
6HR MIN TEMP:  75; 6HR MAX TEMP:  93;

MTN HOME       FAIR      91  74  57 W5        30.07F HX 100
6HR MIN TEMP:  76; 6HR MAX TEMP:  91;

$$

ARZ040-041-291900-
WEST CENTRAL ARKANSAS

CITY           SKY/WX    TMP DP  RH WIND       PRES   REMARKS
MENA           FAIR      99  61  28 E6        30.10S HX  99
MOUNT IDA      FAIR      97  68  38 W7        30.06F HX 102
6HR MIN TEMP:  73; 6HR MAX TEMP:  97;

$$

ARZ009-017-025-026-028-291900-
NORTHEAST ARKANSAS

CITY           SKY/WX    TMP DP  RH WIND       PRES   REMARKS
JONESBORO      FAIR      93  78  61 N6        30.01F HX 108
6HR MIN TEMP:  79; 6HR MAX TEMP:  93;

NEWPORT        FAIR      96  76  52 NW8       30.03F HX 109
6HR MIN TEMP:  80; 6HR MAX TEMP:  96;

WALNUT RIDGE   FAIR      93  75  55 N6        30.00F HX 104
6HR MIN TEMP:  79; 6HR MAX TEMP:  93;

BLYTHEVILLE    FAIR      95  83  68 CALM      30.00F HX 120
6HR MIN TEMP:  81; 6HR MAX TEMP:  96;

$$

ARZ022-023-033-042-044-291900-
CENTRAL ARKANSAS

CITY           SKY/WX    TMP DP  RH WIND       PRES   REMARKS
LITTLE ROCK    FAIR      98  70  40 VRB6      30.03F HX 105
6HR MIN TEMP:  80; 6HR MAX TEMP:  99;

N LITTLE ROCK  MOSUNNY   98  70  41 W7        30.03F HX 105
6HR MIN TEMP:  81; 6HR MAX TEMP:  98;

JACKSONVILLE   FAIR      99  70  38 N9        30.03F HX 105
6HR MIN TEMP:  77; 6HR MAX TEMP:  99;

SEARCY         FAIR      96  77  54 N6        30.05S HX 111
HOT SPRINGS    FAIR      99  65  32 VRB7      30.05F HX 102
6HR MIN TEMP:  77; 6HR MAX TEMP:  99;

RUSSELLVILLE   FAIR      95  69  42 W8        30.04F HX 100
6HR MIN TEMP:  75; 6HR MAX TEMP:  96;

CLINTON        FAIR      95  73  49 NW8       30.07F HX 105
$$

ARZ036-291900-
EAST ARKANSAS

CITY           SKY/WX    TMP DP  RH WIND       PRES   REMARKS
WEST MEMPHIS   FAIR      95  78  58 VRB7      30.02S HX 111
6HR MIN TEMP:  79; 6HR MAX TEMP:  95;

$$

ARZ050-053-066-070-073-291900-
SOUTHWEST ARKANSAS

CITY           SKY/WX    TMP DP  RH WIND       PRES   REMARKS
ARKADELPHIA    FAIR     100  71  39 W6        30.05F HX 108
6HR MIN TEMP:  76; 6HR MAX TEMP: 100;

CAMDEN         FAIR      99  68  36 CALM      30.04F HX 104
TEXARKANA      FAIR      96  70  42 N6        30.06F HX 102
6HR MIN TEMP:  78; 6HR MAX TEMP:  97;

EL DORADO      PTSUNNY   95  71  45 N5        30.06S HX 102
6HR MIN TEMP:  77; 6HR MAX TEMP:  96;

DE QUEEN       FAIR      96  72  45 S7        30.04F HX 104
6HR MIN TEMP:  73; 6HR MAX TEMP:  96;

$$

ARZ056-057-069-291900-
SOUTHEAST ARKANSAS

CITY           SKY/WX    TMP DP  RH WIND       PRES   REMARKS
PINE BLUFF     FAIR      98  70  40 N7        30.04F HX 105
6HR MIN TEMP:  77; 6HR MAX TEMP:  98;

STUTTGART      FAIR      97  73  46 NW9       30.04F HX 107
6HR MIN TEMP:  81; 6HR MAX TEMP:  97;

MONTICELLO     FAIR      97  72  44 VRB5      30.04F HX 105
6HR MIN TEMP:  78; 6HR MAX TEMP:  97;


$$




USA.gov is the U.S. government's official web portal to all federal, state and local government web resources and services.